This demonstration page uses our WeatherBlox Daily Observations layout. Learn more.

Hourly Observations for April 17, 2015

Temp ( °F °C ) Dew Point ( °F °C ) Humidity (%) Winds ( mph kmh ) Pressure ( in mb ) Visibility ( mi km ) Precip ( " mm )
12:15 am 00:15 Partly Cloudy 54 12.2 51 10.7 91 91 E 9 15 30.06 1018 10 16.0934 0 0
12:35 am 00:35 Mostly Cloudy 54 12 51 10.7 92 92 ESE 8 13 30.06 1018 10 16.0934 0 0
12:55 am 00:55 Cloudy 54 12.2 51 10.8 91 91 ESE 10 17 30.06 1018 10 16.0934 0 0
1:15 am 01:15 Cloudy 54 12.3 51 10.5 89 89 ESE 9 15 30.06 1018 10 16.0934 0 0
1:35 am 01:35 Cloudy 55 12.5 51 10.3 87 87 E 10 17 30.06 1018 10 16.0934 0 0
1:55 am 01:55 Cloudy 55 12.6 51 10.3 86 86 ENE 9 15 30.06 1018 10 16.0934 0 0
2:15 am 02:15 Cloudy 54 12 51 10.5 91 91 NE 9 15 30.06 1018 10 16.0934 0 0
2:35 am 02:35 Cloudy with Rain 54 12 51 10.5 91 91 NE 5 7 30.06 1018 10 16.0934 0 0
2:55 am 02:55 Cloudy with Light Drizzle 53 11.8 51 10.6 92 92 NE 5 7 30.06 1018 10 16.0934 0 0
3:15 am 03:15 Cloudy 53 11.5 51 10.5 94 94 NNE 6 9 30.06 1018 10 16.0934 0 0
3:35 am 03:35 Cloudy with Light Rain 53 11.6 51 10.5 93 93 N 5 7 30.06 1018 7 11.26538 0 0
3:55 am 03:55 Cloudy with Rain 53 11.6 51 10.6 94 94 N 3 6 30.09 1019 5 8.0467 0.02 0.508
4:15 am 04:15 Cloudy with Light Rain 53 11.5 51 10.5 94 94 NNE 6 9 30.09 1019 4 6.43736 0.02 0.508
4:35 am 04:35 Cloudy with Light Rain 53 11.6 51 10.8 95 95 Calm 30.09 1019 4 6.43736 0.03 0.762
4:55 am 04:55 Cloudy with Light Drizzle 53 11.5 51 10.7 95 95 N 6 9 30.09 1019 3 4.82802 0.03 0.762
5:15 am 05:15 Cloudy with Light Rain 53 11.5 51 10.7 95 95 NE 6 9 30.06 1018 3 4.82802 0 0
5:35 am 05:35 Cloudy with Light Rain 53 11.5 51 10.7 95 95 ENE 7 11 30.06 1018 2.5 4.02335 0 0
5:55 am 05:55 Cloudy with Rain 53 11.5 51 10.7 95 95 ENE 8 13 30.06 1018 2 3.21868 0.01 0.254
6:15 am 06:15 Cloudy with Mist and Fog 53 11.6 52 11 96 96 ENE 6 9 30.06 1018 4 6.43736 0 0
6:35 am 06:35 Cloudy with Mist and Fog 53 11.5 51 10.7 95 95 NE 7 11 30.06 1018 2 3.21868 0 0
6:55 am 06:55 Cloudy with Mist and Fog 53 11.5 51 10.8 96 96 NE 7 11 30.06 1018 2 3.21868 0 0
7:15 am 07:15 Cloudy with Light Rain 53 11.4 51 10.8 96 96 NE 3 6 30.06 1018 2 3.21868 0 0
7:35 am 07:35 Cloudy with Thunderstorms 53 11.5 51 10.8 96 96 NNE 7 11 30.06 1018 1.25 2.011675 0 0
7:55 am 07:55 Cloudy with Mist and Fog 53 11.6 52 11 96 96 ENE 7 11 30.06 1018 2 3.21868 0 0
8:15 am 08:15 Cloudy with Mist and Fog 53 11.8 52 11.2 96 96 ENE 9 15 30.06 1018 2 3.21868 0 0
8:35 am 08:35 Cloudy with Mist and Fog 54 12.1 53 11.5 96 96 NE 14 22 30.03 1017 1.75 2.816345 0 0
8:55 am 08:55 Cloudy with Mist and Fog 54 12.4 53 11.8 96 96 NE 12 19 30.03 1017 1.75 2.816345 0 0
9:15 am 09:15 Cloudy with Mist and Fog 55 12.9 54 12.2 96 96 ENE 14 22 30.06 1018 2.5 4.02335 0 0
9:35 am 09:35 Cloudy with Mist and Fog 55 13 54 12 94 94 ENE 13 20 30.06 1018 4 6.43736 0 0
9:55 am 09:55 Cloudy with Mist and Fog 55 13 54 12 94 94 ENE 13 20 30.06 1018 3 4.82802 0 0
10:15 am 10:15 Cloudy with Mist and Fog 56 13.5 54 12 91 91 ENE 12 19 30.06 1018 5 8.0467 0 0
10:35 am 10:35 Cloudy with Mist and Fog 56 13.4 54 12.1 92 92 ENE 13 20 30.06 1018 4 6.43736 0 0
10:55 am 10:55 Cloudy with Mist and Fog 56 13.6 54 12.3 92 92 ENE 15 24 30.03 1017 4 6.43736 0 0
11:15 am 11:15 Cloudy with Mist and Fog 56 13.6 54 12.2 91 91 ENE 14 22 30.03 1017 4 6.43736 0 0
11:35 am 11:35 Cloudy with Mist and Fog 56 13.6 54 12.3 92 92 NE 13 20 30.03 1017 4 6.43736 0 0
11:55 am 11:55 Cloudy with Mist and Fog 56 13.5 54 12.1 91 91 E 9 15 30.03 1017 4 6.43736 0 0
12:15 pm 12:15 Cloudy with Mist and Fog 56 13.5 54 12.2 92 92 ESE 8 13 30.06 1018 4 6.43736 0 0
12:35 pm 12:35 Cloudy with Mist and Fog 57 13.7 55 12.5 93 93 E 8 13 30.03 1017 4 6.43736 0 0
12:55 pm 12:55 Cloudy with Light Rain 57 13.9 55 12.6 92 92 ESE 8 13 30.03 1017 4 6.43736 0 0
1:15 pm 13:15 Cloudy with Light Rain 58 14.5 56 13.2 92 92 ESE 8 13 30.03 1017 3 4.82802 0 0
1:35 pm 13:35 Cloudy with Light Rain 59 15.1 57 14 93 93 E 12 19 30.03 1017 2.5 4.02335 0.01 0.254
1:55 pm 13:55 Mostly Cloudy with Mist and Fog 61 16 58 14.5 91 91 E 13 20 30 1016 5 8.0467 0.01 0.254
2:15 pm 14:15 Cloudy with Mist and Fog 61 16.2 58 14.3 89 89 ESE 9 15 30 1016 5 8.0467 0 0
2:35 pm 14:35 Cloudy 62 16.5 57 13.8 84 84 E 10 17 29.97 1015 10 16.0934 0 0
2:55 pm 14:55 Mostly Cloudy 64 17.6 58 14.2 81 81 E 12 19 29.97 1015 10 16.0934 0 0
3:15 pm 15:15 Partly Cloudy 65 18.4 57 13.8 75 75 E 14 22 29.94 1014 10 16.0934 0 0
3:35 pm 15:35 Mostly Cloudy 67 19.2 53 11.9 63 63 SE 17 28 29.94 1014 10 16.0934 0 0
3:55 pm 15:55 Cloudy 66 19 53 11.6 62 62 ESE 12 19 29.94 1014 10 16.0934 0 0
4:15 pm 16:15 Mostly Cloudy 67 19.5 53 11.4 60 60 ESE 12 19 29.91 1013 10 16.0934 0 0
4:35 pm 16:35 Cloudy 68 20 53 11.9 60 60 ESE 13 20 29.91 1013 10 16.0934 0 0
4:55 pm 16:55 Partly Cloudy 67 19.7 55 12.5 63 63 E 13 20 29.88 1012 10 16.0934 0 0
5:15 pm 17:15 Mostly Cloudy with Thunderstorms 65 18.4 54 12.4 68 68 E 12 19 29.91 1013 10 16.0934 0 0
5:35 pm 17:35 Partly Cloudy 67 19.2 53 11.8 62 62 ESE 14 22 29.91 1013 10 16.0934 0 0
5:55 pm 17:55 Sunny 66 18.9 54 12.3 66 66 ESE 12 19 29.91 1013 10 16.0934 0 0
6:15 pm 18:15 Sunny 66 19.1 55 12.5 66 66 E 12 19 29.91 1013 10 16.0934 0 0
6:35 pm 18:35 Partly Cloudy 67 19.2 53 11.9 63 63 ESE 13 20 29.91 1013 10 16.0934 0 0
6:55 pm 18:55 Mostly Cloudy 64 18 55 12.5 70 70 E 7 11 29.91 1013 10 16.0934 0 0
7:15 pm 19:15 Partly Cloudy 65 18.2 55 12.7 70 70 E 10 17 29.91 1013 10 16.0934 0 0
7:35 pm 19:35 Sunny 64 18 55 12.6 71 71 E 10 17 29.91 1013 10 16.0934 0 0
7:55 pm 19:55 Sunny 62 16.8 55 13 78 78 ENE 9 15 29.91 1013 10 16.0934 0 0
8:15 pm 20:15 Sunny 61 15.9 55 13 83 83 ENE 10 17 29.91 1013 10 16.0934 0 0
8:35 pm 20:35 Clear 60 15.3 54 12.4 83 83 ENE 10 17 29.94 1014 10 16.0934 0 0
8:55 pm 20:55 Clear 59 14.9 55 13 89 89 ENE 10 17 29.94 1014 10 16.0934 0 0
9:15 pm 21:15 Clear 59 15.1 55 12.5 85 85 E 9 15 29.94 1014 10 16.0934 0 0
9:35 pm 21:35 Clear 57 14 54 12 88 88 E 8 13 29.97 1015 10 16.0934 0 0
9:55 pm 21:55 Clear 56 13.2 53 11.6 90 90 E 8 13 29.94 1014 10 16.0934 0 0
10:15 pm 22:15 Partly Cloudy 56 13.6 54 12 90 90 E 9 15 29.97 1015 10 16.0934 0 0
10:35 pm 22:35 Cloudy 57 14 54 12.1 88 88 E 8 13 29.97 1015 10 16.0934 0 0
10:55 pm 22:55 Cloudy 57 14 54 12 88 88 E 8 13 29.97 1015 10 16.0934 0 0
11:15 pm 23:15 Partly Cloudy 57 13.8 54 12 89 89 E 9 15 29.94 1014 10 16.0934 0 0
11:35 pm 23:35 Partly Cloudy 57 14.1 54 12.1 88 88 E 9 15 29.94 1014 10 16.0934 0 0
11:55 pm 23:55 Clear 57 14.1 54 12 87 87 E 10 17 29.94 1014 10 16.0934 0 0

Powered by AerisWeather